Terug naar catalogus

DELTA 1 DEB

ActiefLEO
NORAD 10250·DEBRIS·🇺🇸 United States

Gelanceerd Jul 14, 1977 vanaf Cape Canaveral Space Force Station

Loading…

Volgende Passages (komende 24 uur)

TLE

VersSource: Space-Track

Epoch: Sep 14, 2026, 14:35 UTC

1 10250U 77065CB  26257.60814746  .00001942  00000-0  35710-3 0  9996
2 10250  29.0817  25.8063 0529601 267.3329  86.6541 13.98979958320672

Volg DELTA 1 DEB in realtime met AllMySat

Download on the App Store